OBJECT R

基本信息
目录编号:
67263
目录名称:
OBJECT R
国际标识:
2025-313R
轨道中心:
EARTH
物体状态:
在轨
发射日期:
2025-12-28 UTC
国别:
(TBD)
轨道信息
数据来源: 国际轨道数据
星历时间: 2026-09-05T11:39:58+0800
半长轴: 6870.07km
偏心率: 0.0015621
轨道倾角: 97.389°
近地点辐角: 83.681°
升交点赤经: 321.769°
平近点角: 276.620°
近地点: 481.201km
远地点: 502.665km
周期: 94.450分钟
每日圈数: 15.24618
详细信息
发射场:
VOSTO
轨道高度:
LEO
数据来源:
AOE Integration Group
参考系:
TEME
时间系统:
UTC
历元类型:
SGP4
2D轨道图
3D轨道图
轨道高度分析图
轨道倾角分析图
轨道综合分析图
查看轨道综合分析图